Regional Weather Roundup
Issued by NWS

Home | Current Version | Previous Version | Graphics & Text | Print | Product List | Glossary On
Versions: 1 2 3 4 5 6 7 8 9 10 11 12 13 14 15 16 17 18 19 20 21 22 23 24 25 26 27 28 29 30 31 32 33 34 35 36 37 38 39 40 41 42 43 44 45 46 47 48 49 50
977
ASUS43 KDTX 110110
RWRMI
MICHIGAN HOURLY REGIONAL WEATHER ROUNDUP
NATIONAL WEATHER SERVICE DETROIT/PONTIAC MI
800 PM EST WED FEB 10 2016

NOTE: "FAIR" INDICATES FEW OR NO CLOUDS BELOW 12,000 FEET WITH NO
SIGNIFICANT WEATHER AND/OR OBSTRUCTION TO VISIBILITY.

MIZ047>049-052>055-059>063-066>070-074>076-081>083-110200-
SOUTHEAST LOWER MICHIGAN

CITY           SKY/WX    TMP DP  RH WIND       PRES   REMARKS
ADRIAN         CLOUDY    18   5  57 NW10      29.97R WCI   6
ALMA           PTCLDY    12   9  87 W7        29.99R WCI   2
ANN ARBOR      CLOUDY    17   7  64 NW13      29.95R WCI   4
BAD AXE        CLOUDY    13   4  66 NW10      29.91R WCI   0
CARO           MOCLDY    10   0  61 W9        29.93R WCI  -2
DETROIT CITY   LGT SNOW  17  10  74 NW9G18    29.94R WCI   6
DETROIT        FLURRIES  18   6  59 NW18G24   29.95R WCI   2
FLINT          CLEAR     14  -1  51 NW9       29.95R WCI   2
GROSSE ILE     CLOUDY    19  10  68 W10       29.94R WCI   8
HILLSDALE      FLURRIES  15   6  69 NW15G22   29.95R WCI  -1
HOWELL         CLOUDY    14   7  74 NW12      29.94R WCI   0

CITY           SKY/WX    TMP DP  RH WIND       PRES   REMARKS
JACKSON        CLOUDY    15   2  56 NW15G25   29.96R WCI   0
LAMBERTVILLE   CLOUDY    19  11  71 W7        29.97R WCI  10
LANSING        CLOUDY    15   4  61 NW8       29.98R HAZE    WCI   4
LAPEER         FAIR      12   0  58 NW8       29.93R WCI   0
MASON          CLOUDY    15   4  62 NW10G22   29.96R WCI   3
MONROE         CLOUDY    20   8  58 NW9       29.95R WCI   9
MT. CLEMENS    FRZ DRZL  16   9  73 NW12      29.92R WCI   3
PONTIAC        FLURRIES  13   4  67 NW9       29.91R WCI   1
PORT HOPE        N/A     14   5  67 NW22G31   29.89R WCI  -4
PORT HURON     CLOUDY    16   3  57 NW7       29.92R WCI   6
TRI CITIES     CLEAR     13   1  59 NW9       29.97R WCI   1
MIDLAND        FAIR      12   1  62 W6        29.97R WCI   2
TROY           CLOUDY    17  10  74 W13       29.95R WCI   4
SAGINAW HB     PTCLDY    14   3  62 W13       29.96R WCI   0
$$
MIZ043>046-050>051-056>058-064>065-071>073-077>080-110200-
SOUTHWEST LOWER MICHIGAN

CITY           SKY/WX    TMP DP  RH WIND       PRES   REMARKS
BATTLE CREEK   MOCLDY    15   3  59 NW12      30.00R WCI   2
BENTON HARBOR  CLOUDY    17   8  67 NW10      30.07R WCI   5
BIG RAPIDS     MOCLDY    13   6  74 NW7       29.98R WCI   2
COLDWATER      CLOUDY    16   6  65 NW13      29.99R WCI   2
FREMONT        CLOUDY    14   9  79 NW7       30.02R WCI   4
HOLLAND        LGT SNOW  15  10  80 NW6       30.05R VSB 3/4 WCI   6
GRAND RAPIDS   PTCLDY    15   7  70 NW12      30.02R WCI   2
IONIA          FAIR      14   3  62 NW9       29.99R WCI   2
KALAMAZOO      CLOUDY    15   6  67 NW12      30.02R WCI   2
LUDINGTON      CLOUDY    16   6  63 NW10G18   30.04R WCI   4
MARSHALL       CLOUDY    15   1  53 NW12      29.98R WCI   2
MOUNT PLEASANT MOCLDY    15   4  61 W3        29.97R
MUSKEGON       MOCLDY    16   7  67 N8        30.05R WCI   5
SOUTH HAVEN    LGT SNOW  17  12  80 NW9G16    30.05R WCI   6
$$
MIZ016>042-110200-
NORTHERN LOWER MICHIGAN

CITY           SKY/WX    TMP DP  RH WIND       PRES   REMARKS
ALPENA         LGT SNOW   9   4  80 NW9G17    29.92R WCI  -4
BEAVER ISLAND  MOCLDY    13   4  67 N13G21    30.00S WCI  -2
BELLAIRE       CLOUDY    14   0  55 NW10G18   30.00R WCI   1
CADILLAC       LGT SNOW  12   6  77 NW9       29.93R WCI  -1
CHARLEVOIX     LGT SNOW  14   5  68 NW18G29   30.02R WCI  -3
FRANKFORT      FLURRIES  16   8  68 N10G22    30.02R WCI   4
GAYLORD        MOCLDY     8  -2  63 VRB5      29.91R WCI   0
GRAYLING       CLOUDY    10   2  73 NW9       29.94R WCI  -4
HARBOR SPRINGS CLOUDY    10  -1  59 NW8       29.98R WCI  -2
HOUGHTON LAKE  PTCLDY     9   0  67 NW10G23   29.93R WCI  -5
MANISTEE       MOCLDY    16   7  67 NW18G26   30.02R WCI  -1
OSCODA         CLOUDY     9  -1  64 NW12G18   29.93R WCI  -6
PELLSTON       MOCLDY     7  -2  66 NW9       29.98R WCI  -7
ROGERS CITY    CLOUDY    11   2  67 N12G26    29.94R HAZE    WCI  -3
TRAVERSE CITY  LGT SNOW  16   5  62 N14G24    29.99R WCI   2
$$
MIZ007>008-015-110200-
EASTERN UPPER MICHIGAN

CITY           SKY/WX    TMP DP  RH WIND       PRES   REMARKS
KINROSS        CLOUDY     7   0  72 N14       29.95R WCI -10
MACKINAC ISLAN CLOUDY     9   2  75 NW9G17    29.96R WCI  -5
NEWBERRY       CLOUDY     9   6  87 NW7       29.96S FOG     WCI  -2
S. S. MARIE    CLEAR      5  -7  57 N10       29.97R WCI -10
MUNISING         N/A     13   7  77 N17G32    30.02S WCI  -4
$$
MIZ004>006-011>014-085-110200-
CENTRAL UPPER MICHIGAN

CITY           SKY/WX    TMP DP  RH WIND       PRES   REMARKS
MANISTIQUE     LGT SNOW  10   6  84 NW6       30.01S WCI   0
ESCANABA       PTCLDY     9  -2  61 NW12G17   30.07R WCI  -6
MENOMINEE      CLEAR      9  -6  52 N8        30.10R WCI  -4
SAWYER-GWINN   CLOUDY     5   0  78 NW14      30.02R WCI -12
$$
MIZ001>003-009>011-084-110200-
WESTERN UPPER MICHIGAN

CITY           SKY/WX    TMP DP  RH WIND       PRES   REMARKS
IRON MOUNTAIN  CLOUDY     7  -5  57 NW12      30.06R WCI  -8
HOUGHTON       FLURRIES   8   0  69 N12G21    30.06R WCI  -7
COPPER HARBOR    N/A     14   7  73 NE20G31   30.08R WCI  -3
IRONWOOD       CLOUDY     9   1  72 NW8       30.09R WCI  -4
$$

ABBREVIATIONS USED IN REMARKS
   TC - TEMPERATURE IN CELSIUS
  WCI - WIND CHILL INDEX
   HX - HEAT INDEX
  VSB - VISIBILITY





USA.gov is the U.S. government's official web portal to all federal, state and local government web resources and services.